Time,TemperatureF,DewpointF,PressureIn,WindDirection,WindDirectionDegrees,WindSpeedMPH,WindSpeedGustMPH,Humidity,HourlyPrecipIn,Conditions,Clouds,dailyrainin,SolarRadiationWatts/m^2,SoftwareType,DateUTC
2013-08-05 00:00:00,59.0,53.0,-100.00,East,90,1.0,-999.0,79,-99.99,,,-99.99,0.000000,,2013-08-05 04:00:00,
2013-08-05 00:32:00,59.0,53.0,-100.00,East,90,1.0,-999.0,79,-99.99,,,-99.99,0.000000,,2013-08-05 04:32:00,
2013-08-05 00:43:00,59.0,53.0,-100.00,East,90,1.0,-999.0,79,-99.99,,,-99.99,0.000000,,2013-08-05 04:43:00,
2013-08-05 00:52:00,59.0,53.0,-100.00,East,90,1.0,-999.0,79,-99.99,,,-99.99,0.000000,,2013-08-05 04:52:00,
2013-08-05 01:00:00,58.0,51.0,-100.00,East,90,1.0,-999.0,76,-99.99,,,-99.99,0.000000,,2013-08-05 05:00:00,
2013-08-05 01:32:00,58.0,51.0,-100.00,East,90,1.0,-999.0,76,-99.99,,,-99.99,0.000000,,2013-08-05 05:32:00,
2013-08-05 01:43:00,58.0,51.0,-100.00,East,90,1.0,-999.0,76,-99.99,,,-99.99,0.000000,,2013-08-05 05:43:00,
2013-08-05 01:53:00,58.0,51.0,-100.00,East,90,1.0,-999.0,76,-99.99,,,-99.99,0.000000,,2013-08-05 05:53:00,
2013-08-05 02:00:00,55.0,50.0,-100.00,NE,45,0.0,-999.0,82,-99.99,,,-99.99,0.000000,,2013-08-05 06:00:00,
2013-08-05 02:43:00,55.0,50.0,-100.00,NE,45,0.0,-999.0,82,-99.99,,,-99.99,0.000000,,2013-08-05 06:43:00,
2013-08-05 02:52:00,55.0,50.0,-100.00,NE,45,0.0,-999.0,82,-99.99,,,-99.99,0.000000,,2013-08-05 06:52:00,
2013-08-05 03:00:00,52.0,49.0,-100.00,NE,45,0.0,-999.0,86,-99.99,,,-99.99,0.000000,,2013-08-05 07:00:00,
2013-08-05 03:33:00,52.0,49.0,-100.00,NE,45,0.0,-999.0,86,-99.99,,,-99.99,0.000000,,2013-08-05 07:33:00,
2013-08-05 03:43:00,52.0,49.0,-100.00,NE,45,0.0,-999.0,86,-99.99,,,-99.99,0.000000,,2013-08-05 07:43:00,
2013-08-05 03:53:00,52.0,49.0,-100.00,NE,45,0.0,-999.0,86,-99.99,,,-99.99,0.000000,,2013-08-05 07:53:00,
2013-08-05 04:00:00,51.0,48.0,-100.00,NE,45,0.0,-999.0,89,-99.99,,,-99.99,0.000000,,2013-08-05 08:00:00,
2013-08-05 04:53:00,51.0,48.0,-100.00,NE,45,0.0,-999.0,89,-99.99,,,-99.99,0.000000,,2013-08-05 08:53:00,
2013-08-05 05:00:00,50.0,47.0,-100.00,NE,45,0.0,-999.0,90,-99.99,,,-99.99,0.000000,,2013-08-05 09:00:00,
2013-08-05 05:43:00,50.0,47.0,-100.00,NE,45,0.0,-999.0,90,-99.99,,,-99.99,0.000000,,2013-08-05 09:43:00,
2013-08-05 05:49:00,50.0,47.0,-100.00,NE,45,0.0,-999.0,90,-99.99,,,-99.99,0.000000,,2013-08-05 09:49:00,
2013-08-05 06:00:00,49.0,46.0,-100.00,NE,45,0.0,-999.0,91,-99.99,,,-99.99,0.000000,,2013-08-05 10:00:00,
2013-08-05 06:37:00,49.0,46.0,-100.00,NE,45,0.0,-999.0,91,-99.99,,,-99.99,0.000000,,2013-08-05 10:37:00,
2013-08-05 06:50:00,49.0,46.0,-100.00,NE,45,0.0,-999.0,91,-99.99,,,-99.99,0.000000,,2013-08-05 10:50:00,
2013-08-05 07:00:00,49.0,47.0,-100.00,NNE,22,0.0,-999.0,92,-99.99,,,-99.99,5.800000,,2013-08-05 11:00:00,
2013-08-05 07:38:00,49.0,47.0,-100.00,NNE,22,0.0,-999.0,92,-99.99,,,-99.99,5.800000,,2013-08-05 11:38:00,
2013-08-05 07:54:00,49.0,47.0,-100.00,NNE,22,0.0,-999.0,92,-99.99,,,-99.99,5.800000,,2013-08-05 11:54:00,
2013-08-05 08:00:00,53.0,51.0,-100.00,SSW,202,0.0,-999.0,92,-99.99,,,-99.99,105.559998,,2013-08-05 12:00:00,
2013-08-05 08:34:00,53.0,51.0,-100.00,SSW,202,0.0,-999.0,92,-99.99,,,-99.99,105.559998,,2013-08-05 12:34:00,
2013-08-05 09:00:00,59.0,56.0,-100.00,SW,225,0.0,-999.0,88,-99.99,,,-99.99,183.279999,,2013-08-05 13:00:00,
2013-08-05 09:40:00,59.0,56.0,-100.00,SW,225,0.0,-999.0,88,-99.99,,,-99.99,183.279999,,2013-08-05 13:40:00,
2013-08-05 09:47:00,59.0,56.0,-100.00,SW,225,0.0,-999.0,88,-99.99,,,-99.99,183.279999,,2013-08-05 13:47:00,
2013-08-05 09:54:00,59.0,56.0,-100.00,SW,225,0.0,-999.0,88,-99.99,,,-99.99,183.279999,,2013-08-05 13:54:00,
2013-08-05 10:00:00,65.0,55.0,-100.00,SSW,202,3.0,-999.0,70,-99.99,,,-99.99,406.000000,,2013-08-05 14:00:00,
2013-08-05 10:42:00,65.0,55.0,-100.00,SSW,202,3.0,-999.0,70,-99.99,,,-99.99,406.000000,,2013-08-05 14:42:00,
2013-08-05 10:49:00,65.0,55.0,-100.00,SSW,202,3.0,-999.0,70,-99.99,,,-99.99,406.000000,,2013-08-05 14:49:00,
2013-08-05 11:00:00,67.0,56.0,-100.00,SSW,202,3.0,-999.0,69,-99.99,,,-99.99,425.720001,,2013-08-05 15:00:00,
2013-08-05 11:51:00,67.0,56.0,-100.00,SSW,202,3.0,-999.0,69,-99.99,,,-99.99,425.720001,,2013-08-05 15:51:00,
2013-08-05 11:59:00,67.0,56.0,-100.00,SSW,202,3.0,-999.0,69,-99.99,,,-99.99,425.720001,,2013-08-05 15:59:00,
2013-08-05 12:00:00,69.0,56.0,-100.00,SW,225,4.0,-999.0,63,-99.99,,,-99.99,600.880005,,2013-08-05 16:00:00,
2013-08-05 12:45:00,69.0,56.0,-100.00,SW,225,4.0,-999.0,63,-99.99,,,-99.99,600.880005,,2013-08-05 16:45:00,
2013-08-05 13:00:00,71.0,51.0,-100.00,West,270,3.0,-999.0,49,-99.99,,,-99.99,512.719971,,2013-08-05 17:00:00,
2013-08-05 13:39:00,71.0,51.0,-100.00,West,270,3.0,-999.0,49,-99.99,,,-99.99,512.719971,,2013-08-05 17:39:00,
2013-08-05 13:50:00,71.0,51.0,-100.00,West,270,3.0,-999.0,49,-99.99,,,-99.99,512.719971,,2013-08-05 17:50:00,
2013-08-05 14:00:00,71.0,49.0,-100.00,West,270,3.0,-999.0,46,-99.99,,,-99.99,371.200012,,2013-08-05 18:00:00,
2013-08-05 14:45:00,71.0,49.0,-100.00,West,270,3.0,-999.0,46,-99.99,,,-99.99,371.200012,,2013-08-05 18:45:00,
2013-08-05 14:54:00,71.0,49.0,-100.00,West,270,3.0,-999.0,46,-99.99,,,-99.99,371.200012,,2013-08-05 18:54:00,
2013-08-05 15:00:00,70.0,53.0,-100.00,SW,225,1.0,-999.0,54,-99.99,,,-99.99,165.880005,,2013-08-05 19:00:00,
2013-08-05 15:54:00,70.0,53.0,-100.00,SW,225,1.0,-999.0,54,-99.99,,,-99.99,165.880005,,2013-08-05 19:54:00,
2013-08-05 16:00:00,72.0,54.0,-100.00,SSE,157,1.0,-999.0,53,-99.99,,,-99.99,209.960007,,2013-08-05 20:00:00,
2013-08-05 16:48:00,72.0,54.0,-100.00,SSE,157,1.0,-999.0,53,-99.99,,,-99.99,209.960007,,2013-08-05 20:48:00,
2013-08-05 17:00:00,70.0,55.0,-100.00,SE,135,1.0,-999.0,60,-99.99,,,-99.99,148.479996,,2013-08-05 21:00:00,
2013-08-05 17:48:00,70.0,55.0,-100.00,SE,135,1.0,-999.0,60,-99.99,,,-99.99,148.479996,,2013-08-05 21:48:00,
2013-08-05 17:54:00,70.0,55.0,-100.00,SE,135,1.0,-999.0,60,-99.99,,,-99.99,148.479996,,2013-08-05 21:54:00,
2013-08-05 18:00:00,69.0,56.0,-100.00,SE,135,2.0,-999.0,63,-99.99,,,-99.99,154.279999,,2013-08-05 22:00:00,
2013-08-05 18:44:00,69.0,56.0,-100.00,SE,135,2.0,-999.0,63,-99.99,,,-99.99,154.279999,,2013-08-05 22:44:00,
2013-08-05 18:53:00,69.0,56.0,-100.00,SE,135,2.0,-999.0,63,-99.99,,,-99.99,154.279999,,2013-08-05 22:53:00,
2013-08-05 19:00:00,67.0,58.0,-100.00,ESE,112,1.0,-999.0,73,-99.99,,,-99.99,52.200001,,2013-08-05 23:00:00,
2013-08-05 19:33:00,67.0,58.0,-100.00,ESE,112,1.0,-999.0,73,-99.99,,,-99.99,52.200001,,2013-08-05 23:33:00,
2013-08-05 19:46:00,67.0,58.0,-100.00,ESE,112,1.0,-999.0,73,-99.99,,,-99.99,52.200001,,2013-08-05 23:46:00,
2013-08-05 20:00:00,66.0,59.0,-100.00,ESE,112,1.0,-999.0,78,-99.99,,,-99.99,34.799999,,2013-08-06 00:00:00,
2013-08-05 20:37:00,66.0,59.0,-100.00,ESE,112,1.0,-999.0,78,-99.99,,,-99.99,34.799999,,2013-08-06 00:37:00,
2013-08-05 20:47:00,66.0,59.0,-100.00,ESE,112,1.0,-999.0,78,-99.99,,,-99.99,34.799999,,2013-08-06 00:47:00,
2013-08-05 20:57:00,66.0,59.0,-100.00,ESE,112,1.0,-999.0,78,-99.99,,,-99.99,34.799999,,2013-08-06 00:57:00,
2013-08-05 21:00:00,65.0,57.0,-100.00,SE,135,2.0,-999.0,74,-99.99,,,-99.99,17.400000,,2013-08-06 01:00:00,
2013-08-05 21:53:00,65.0,57.0,-100.00,SE,135,2.0,-999.0,74,-99.99,,,-99.99,17.400000,,2013-08-06 01:53:00,
2013-08-05 22:00:00,64.0,56.0,-100.00,ESE,112,3.0,-999.0,75,-99.99,,,-99.99,0.000000,,2013-08-06 02:00:00,
2013-08-05 22:53:00,64.0,56.0,-100.00,ESE,112,3.0,-999.0,75,-99.99,,,-99.99,0.000000,,2013-08-06 02:53:00,
2013-08-05 23:00:00,64.0,56.0,-100.00,SE,135,3.0,-999.0,75,-99.99,,,-99.99,0.000000,,2013-08-06 03:00:00,
2013-08-05 23:45:00,64.0,56.0,-100.00,SE,135,3.0,-999.0,75,-99.99,,,-99.99,0.000000,,2013-08-06 03:45:00,
2013-08-05 23:52:00,64.0,56.0,-100.00,SE,135,3.0,-999.0,75,-99.99,,,-99.99,0.000000,,2013-08-06 03:52:00,